Regional Weather Roundup
Issued by NWS Midland/Odessa, TX

Skip options and go directly to product.
Home | Oldest Version | Previous Version | Current Version | All | Text Only | Save Text | Print | Product List | Glossary On

Skip product version selection by date and time.   
060
ASUS44 KMAF 010501
RWRMAF
MIDLAND AREA WEATHER ROUNDUP
NATIONAL WEATHER SERVICE MIDLAND TX
1200 AM CDT SAT OCT 01 2016

...IN SOUTHWEST TEXAS AND SOUTHEAST NEW MEXICO...

CITY           SKY/WX    TMP DP  RH WIND       PRES   REMARKS
ALPINE         CLOUDY    62  58  87 S3        30.25F
ANDREWS        FAIR      61  51  70 S6        30.14S
ARTESIA        CLOUDY    61  59  94 S8        30.12S
BIG SPRING     PTCLDY    63  51  64 SE7       30.15S
CARLSBAD       CLEAR     62  58  86 S6        30.10S
DRYDEN           N/A     66  59  78 N6        30.11F
FORT STOCKTON  CLOUDY    68  57  68 S10       30.13S
GUAD PASS      CLEAR     60  57  89 W16       30.24S
HOBBS          PTCLDY    63  55  77 S7        30.15S
MARFA          CLEAR     59  58  96 CALM      30.24S
MIDLAND AIRPK  PTCLDY    69  51  53 SE7       30.14S
MIDLAND INTL   PTCLDY    65  51  60 SE6       30.13S
ODESSA         CLEAR     69  52  54 S10       30.14R
PECOS          CLOUDY    68  62  80 CALM      30.10S
PRESIDIO       FAIR      73  65  76 CALM      30.13R
SEMINOLE       PTCLDY    64  52  64 CALM      30.15R
SNYDER           N/A     65  54  68 E5        30.13S
WINK           PTCLDY    68  54  60 SE8       30.10S
$$
...OTHER STATIONS IN TEXAS...

CITY           SKY/WX    TMP DP  RH WIND       PRES   REMARKS
ABILENE        CLOUDY    62  55  77 SE6       30.13S
AMARILLO       CLEAR     65  49  56 S17       30.12S
AUSTIN         CLOUDY    59  57  93 CALM      30.10R
BROWNSVILLE    PTCLDY    74  66  76 N3        30.05S
CORPUS CHRISTI MOCLDY    66  60  81 CALM      30.07R
DALLAS FTW     MOCLDY    71  48  43 CALM      30.09S
DEL RIO        MOCLDY    70  62  76 SE3       30.08R
EL PASO        PTCLDY    68  60  75 SE6       30.15S
HOUSTON INT    PTCLDY    64  57  78 CALM      30.08S
LUBBOCK        CLOUDY    66  52  60 S9        30.13S
SAN ANGELO     CLOUDY    60  56  86 S3        30.12S
SAN ANTONIO    PTCLDY    66  55  67 CALM      30.11R
WACO           PTCLDY    59  56  89 CALM      30.10R
WICHITA FALLS  NOT AVBL
$$
...OTHER LOCATIONS IN NEW MEXICO...

CITY           SKY/WX    TMP DP  RH WIND       PRES   REMARKS
ALAMAGORDO     CLEAR     63  59  88 S5        30.18R
ALBUQUERQUE    PTCLDY    68  46  45 NW3       30.20R
CANNON AFB     CLEAR     58  51  77 S5        30.15R
CLOVIS         CLEAR     55  48  76 SW5       30.15S
HOLLOMAN AFB   CLEAR     66  61  82 SE6       30.15R
ROSWELL        CLEAR     61  53  75 S9        30.11F
RUIDOSO        CLEAR     54  48  82 SW9       30.31S
SANTA FE       CLEAR     55  41  59 N6        30.23R
TRUTH OR CONSE CLOUDY    67  59  75 S10       30.18S
TUCUMCARI      CLEAR     65  51  60 SW6       30.10R
$$

  • National Weather Service
  • Southern Region Headquarters
  • 819 Taylor Street, Room 10A06
  • Fort Worth, TX 76102
  • Page Author: NWS Fort Worth
  • Web Master: SR-SRH.Webmaster@noaa.gov
  •  
  • Page last modified: 30-Sep-2016 6:36 PM UTC
USA.gov is the U.S. government's official web portal to all federal, state and local government web resources and services.